Terminal Aerodrome Forecast
Issued by NWS Dodge City, KS

Home | Current Version | Previous Version | Text Only | Print | Product List | Glossary On
Versions: 1 2 3 4 5 6 7 8 9 10 11 12 13 14 15 16 17 18 19 20 21 22 23 24
000
FTUS43 KDDC 261142
TAFDDC
TAF
KDDC 261142Z 2612/2712 15010KT 1/4SM FG VV002
      TEMPO 2614/2616 1SM BR BKN004
     FM261600 13009KT P6SM SCT250
     FM262000 15016G25KT P6SM VCTS SCT250CB
     FM262300 16017KT P6SM SCT250
     FM271100 17010KT P6SM FEW050=

USA.gov is the U.S. government's official web portal to all federal, state and local government web resources and services.